Location: Balaclava NSW 2575, Australia
(34.4510°S, 150.4953°E)
Time: 15:42:37
(UTC+10:00)

Envisat - Pass Details

Date: 19 May 2021
Orbit: 764 x 766 km, 98.1° (Epoch: 18 June)

Event Time Altitude Azimuth Distance (km) Brightness Sun altitude
Rises 05:56:48 0° 329° (NNW) 3,219 6.1 -10.6°
Reaches altitude 10° 06:00:09 10° 306° (NW) 2,304 5.1 -9.9°
Maximum altitude 06:02:54 15° 272° (W) 2,007 4.6 -9.4°
Enters shadow 06:05:40 10° 239° (WSW) 2,315 4.8 -8.8°
